Skip Page Navigation
NASA JPL Caltech
NASA Logo - Jet Propulsion Laboratory + View the NASA Portal
+ Center for Near-Earth Object Studies
JPL Home Earth Solar System Stars & Galaxies Technology
JPL Solar System Dynamics
BODIES ORBITS EPHEMERIDES TOOLS PHYSICAL DATA DISCOVERY FAQ SITE MAP
JPL Small-Body Database Browser
Search: [ help ]  
78077 (2002 LV14)
Classification: Main-belt Asteroid          SPK-ID: 2078077
Ephemeris | Orbit Diagram | Orbital Elements | Mission Design | Physical Parameters | Discovery Circumstances ]

[ show orbit diagram ]
Orbital Elements at Epoch 2459000.5 (2020-May-31.0) TDB
Reference: JPL 19 (heliocentric ecliptic J2000)
 Element Value Uncertainty (1-sigma)   Units 
e .1667042599967031 5.7074e-08  
a 2.589791042870457 1.4659e-08 au
q 2.158061843522648 1.4864e-07 au
i 12.05794095413462 5.0096e-06 deg
node 258.8916403197647 3.4413e-05 deg
peri 35.51583786558434 4.2304e-05 deg
M 80.8314594241788 2.0706e-05 deg
tp 2458658.698918197543
(2019-Jun-24.19891820)
8.8141e-05 TDB
period 1522.283407047797
4.17
1.2925e-05
3.539e-08
d
yr
n .2364868449155319 2.0078e-09 deg/d
Q 3.021520242218267 1.7102e-08 au
  Orbit Determination Parameters
   # obs. used (total)      556  
   data-arc span      9607 days (26.30 yr)  
   first obs. used      1994-06-04  
   last obs. used      2020-09-22  
   planetary ephem.      DE431  
   SB-pert. ephem.      SB431-N16  
   condition code      0  
   norm. resid. RMS      .55054  
   source      ORB  
   producer      Otto Matic  
   solution date      2020-Nov-12 21:28:20  

Additional Information
 Earth MOID = 1.15349 au 
 Jupiter MOID = 2.17035 au 
 T_jup = 3.370 
[ show covariance matrix ]

Ephemeris | Orbit Diagram | Orbital Elements | Mission Design | Physical Parameters | Discovery Circumstances ]

Physical Parameter Table
Parameter Symbol Value Units Sigma Reference Notes
absolute magnitude H 15.6   n/a MPO351393  
diameter diameter 2.726 km 0.898 urn:nasa:pds:neowise_diameters_albedos::2.0[mainbelt] (http://adsabs.harvard.edu/abs/2011ApJ...741...68M)  
geometric albedo albedo 0.180   0.096 urn:nasa:pds:neowise_diameters_albedos::2.0[mainbelt] (http://adsabs.harvard.edu/abs/2011ApJ...741...68M)  

78077 (2002 LV14)          Discovered 2002-Jun-06 by LINEAR at Socorro
Reference: 20040415/Numbers.arcLast Updated: 2004-04-19
Ephemeris | Orbit Diagram | Orbital Elements | Mission Design | Physical Parameters | Discovery Circumstances ]
ABOUT SSD CREDITS/AWARDS PRIVACY/COPYRIGHT GLOSSARY LINKS
FirstGov 2020-Nov-28 20:31 UT
(server date/time)  
NASA Home Page
Site Manager:   Ryan S. Park
Webmaster  Alan B. Chamberlin